Temperature
18 18 18 18 18 18 18 19 19 19 19 19 19 19 19 19 19 19 19 19 18 18 18 18 18 18 18 18 19 18 18 18 18 18 18 18 18 18 18 18 18 18 18
18 18 18 18 18 18 18 18 18 18 18 18 18 18 18 18 18 18 18 18 18 18 18 18 18 18 18 18 18 18 18 18 18 18 18 18 18 18 18 18 18 18 18
18 18 18 18 18 18 18 18 18 18 18 18 18 18 18 18 18 18 18 18 18 18 18 18 18 18 18 18 18 18 18 18 18 18 18 18 18 18 18 18 18 18 18
18 18 18 18 18 18 18 18 18 18 18 18 18 18 18 18 18 18 18 18 18 18 18 18 18 18 18 18 18 18 18 18 18 18 18 18 18 18 18 18 18 18 18
18 18 18 18 18 18 18 18 18 18 18 18 18 18 18 18 18 18 18 18 18 18 18 18 18 18 18 18 18 18 18 18 18 18 18 18 18 18 18 18 18 18 18
18 18 18 18 18 18 18 18 18 18 18 18 17 17 18 17 17 17 17 17 17 17 17 17 18 18 18 18 18 18 18 18 18 18 18 18 18 18 18 18 18 18 18
18 18 18 18 18 18 18 18 18 17 17 17 17 17 17 17 17 17 17 17 17 17 17 17 17 17 17 17 18 18 18 18 18 18 18 18 18 18 18 18 18 18 18
18 18 18 18 18 18 18 17 17 17 17 17 17 17 17 17 16 16 16 16 16 16 17 17 17 17 17 17 17 17 18 18 18 18 18 18 18 18 18 18 18 18 18
19 18 18 18 18 18 17 17 17 17 17 17 16 16 16 16 16 16 16 16 16 16 16 16 17 17 17 17 17 17 17 17 17 17 17 17 18 18 18 18 18 18 18
18 18 18 18 18 18 17 17 17 17 17 16 16 16 16 16 16 16 16 16 16 16 16 16 16 16 16 17 17 17 17 17 17 17 17 17 17 18 18 18 18 18 18
18 18 18 18 18 18 17 17 17 17 17 16 16 16 16 16 16 16 16 16 16 16 16 16 16 16 16 16 17 17 17 17 17 17 17 17 17 17 18 18 18 18 18
19 18 18 18 18 18 17 17 17 17 17 16 16 16 16 16 16 16 16 16 16 16 16 16 16 16 16 16 16 17 17 17 17 17 17 17 17 17 17 17 18 18 18
19 19 19 18 18 18 17 17 17 17 17 16 16 16 16 16 16 16 16 16 16 16 16 16 16 16 16 16 16 16 17 17 17 17 17 17 17 17 17 17 17 17 17
19 19 19 18 18 18 17 17 17 17 17 16 16 16 16 16 16 16 16 15 15 15 15 15 15 16 16 16 16 16 16 16 16 16 17 17 17 17 17 17 17 17 17
19 19 19 19 18 18 18 17 17 17 17 16 16 16 16 16 16 15 15 15 15 15 15 15 15 15 16 16 16 16 16 16 16 16 16 16 16 17 17 17 17 17 17
20 19 19 19 18 18 18 17 17 17 17 16 16 16 16 15 15 15 15 15 15 15 15 15 15 15 15 16 16 16 16 16 16 16 16 16 16 16 17 17 17 17 17
20 19 19 19 18 18 18 17 17 17 16 16 16 16 16 15 15 15 15 15 15 15 15 15 15 15 15 15 16 16 16 16 16 16 16 16 16 16 16 17 17 17 17
20 19 19 19 18 18 18 17 17 17 16 16 16 16 15 15 15 15 15 15 15 15 15 15 15 15 15 15 15 15 16 16 16 16 16 16 16 16 16 16 17 17 17
20 20 19 19 18 18 18 17 17 17 16 16 16 16 15 15 15 15 15 14 14 14 14 14 14 15 15 15 15 15 16 16 16 16 16 16 16 16 16 16 16 17 17
20 20 19 19 19 18 18 17 17 17 16 16 16 16 15 15 15 15 14 14 14 14 14 14 14 14 14 15 15 15 15 16 16 16 16 16 16 16 16 16 16 16 16
20 20 19 19 19 18 18 18 17 17 16 16 16 15 15 15 15 15 14 14 14 14 14 14 14 14 14 14 15 15 15 15 16 16 16 16 16 16 16 16 16 16 16
20 20 19 19 19 18 18 18 17 17 16 16 16 16 15 15 15 15 14 14 14 14 14 14 14 14 14 14 14 14 15 15 15 15 15 16 16 16 16 16 16 16 16
20 19 19 19 18 18 18 17 17 17 16 16 16 16 15 15 15 15 14 14 14 14 14 14 14 14 14 14 14 14 14 14 15 15 15 15 15 16 16 16 16 16 16
19 19 19 19 18 18 18 17 17 17 16 16 16 16 15 15 15 15 14 14 14 14 14 14 14 13 13 14 14 14 14 14 14 14 15 15 15 15 15 16 16 16 16
19 19 19 18 18 18 17 17 17 17 16 16 16 16 15 15 15 15 15 14 14 14 14 14 14 14 13 13 13 14 14 14 14 14 14 15 15 15 15 15 16 16 16
19 18 18 18 18 17 17 17 17 16 16 16 16 16 15 15 15 15 15 14 14 14 14 14 14 14 13 13 13 13 14 14 14 14 14 14 14 15 15 15 15 15 16
Wind_Speed
3 5 10 12 12 12 12 12 12 12 12 12 12 12 12 12 12 12 11 11 10 10 9 9 8 8 8 8 8 7 7 7 7 7 6 5 5 4 5 5 6 5 6
6 8 11 12 12 12 12 12 12 12 11 11 11 11 11 11 11 11 10 10 9 9 8 8 7 7 7 7 6 6 7 7 7 6 5 4 4 4 4 5 6 5 5
8 10 11 12 12 12 12 12 12 11 11 10 10 10 10 10 9 9 8 8 8 7 7 6 6 6 5 5 5 5 6 7 7 6 5 3 3 4 4 5 6 6 6
9 10 11 12 12 12 11 11 11 10 10 9 9 9 9 8 8 7 7 7 7 6 6 6 5 5 4 4 4 5 6 7 7 6 4 2 2 4 5 5 5 5 5
9 10 12 13 12 12 11 11 10 9 9 8 8 7 7 7 7 7 6 6 6 5 5 5 5 5 4 4 4 4 5 7 6 5 3 2 2 4 5 5 5 5 5
8 10 12 13 12 11 11 10 9 8 8 7 7 6 6 6 6 5 5 5 4 4 4 4 4 4 4 4 4 5 5 6 5 3 2 1 2 4 5 5 5 5 5
8 9 11 13 12 11 10 9 9 7 6 6 5 4 4 4 4 4 3 3 3 3 3 3 3 4 4 4 5 5 5 5 3 2 1 1 2 4 5 4 5 5 5
10 9 11 12 12 11 10 9 8 6 5 4 3 2 2 2 2 2 2 2 2 2 3 3 4 4 5 5 5 6 6 5 3 2 2 2 3 4 4 4 4 5 5
9 8 8 9 10 10 9 8 7 6 4 2 1 0 1 2 2 3 3 3 4 3 4 4 5 6 6 6 7 7 7 6 3 2 3 2 4 4 5 4 4 4 4
7 6 6 7 7 7 7 7 6 5 3 2 2 3 3 3 4 4 5 5 5 5 6 6 7 7 7 8 8 8 8 6 3 3 3 4 4 5 5 5 3 3 3
7 6 5 6 6 6 6 6 5 3 2 2 3 4 4 4 4 4 5 5 5 5 6 7 8 8 8 8 8 9 8 4 3 3 3 5 5 6 6 5 4 3 3
7 6 6 6 6 6 6 4 3 2 1 2 2 3 3 3 4 4 5 5 5 6 7 8 8 8 7 6 7 8 5 4 3 3 4 6 6 7 7 6 5 4 3
6 6 7 6 6 5 3 3 2 1 1 0 1 2 2 3 4 3 4 5 6 6 6 8 7 7 5 4 4 4 4 3 3 3 5 7 6 7 7 7 6 5 4
7 7 7 6 5 3 3 2 2 1 1 1 2 3 3 2 3 2 2 3 4 4 4 5 4 5 5 4 3 3 3 2 3 3 5 8 8 7 7 7 6 5 4
7 7 7 6 5 3 3 2 2 2 2 1 3 4 5 3 2 2 2 3 4 4 3 3 3 4 4 4 3 2 2 2 2 3 4 7 8 7 7 6 6 5 5
8 7 6 7 6 4 3 2 2 2 2 3 4 5 7 5 3 3 3 3 4 4 3 2 2 3 3 3 4 3 2 2 2 3 4 5 7 7 7 6 6 6 5
8 7 7 7 5 5 4 3 2 3 4 3 3 5 7 6 5 3 3 3 4 6 5 4 4 3 4 4 4 4 3 2 1 2 4 4 5 7 8 7 7 6 6
7 6 6 6 5 5 4 3 2 3 4 3 3 4 6 6 6 4 3 3 4 5 4 3 3 3 4 4 4 4 3 2 2 2 3 4 4 5 7 8 8 7 7
7 6 5 5 5 4 4 3 3 3 3 2 2 2 4 5 5 4 2 3 4 3 3 4 3 2 3 5 4 3 3 3 3 2 2 3 5 6 6 7 9 8 7
6 6 6 5 4 4 3 3 3 3 2 1 1 1 2 2 3 3 2 3 3 3 4 3 3 3 2 3 4 4 4 3 2 2 2 1 3 5 6 6 6 7 8
5 5 5 5 3 3 2 2 2 1 1 1 1 1 0 0 1 2 1 2 3 2 3 3 2 3 3 3 3 4 4 4 3 2 2 1 2 3 4 5 5 5 5
5 4 4 4 4 3 2 2 1 1 1 1 1 2 2 2 1 1 0 1 2 2 3 3 2 2 3 2 2 2 4 5 4 4 3 2 2 1 2 3 4 5 5
3 3 4 4 3 3 3 3 3 3 3 3 3 2 3 3 3 2 2 1 1 1 2 3 2 1 2 2 1 1 1 2 4 4 3 3 2 1 1 1 3 4 5
3 3 3 3 3 2 3 3 3 2 0 2 2 2 4 4 3 3 3 2 2 2 2 3 1 1 0 2 2 1 2 3 1 3 4 3 3 1 1 1 1 3 5
3 4 3 4 3 2 2 3 2 1 1 2 2 3 4 4 4 4 3 2 2 2 3 3 2 1 1 1 1 1 1 1 1 1 3 4 3 2 2 2 2 2 4
4 4 4 4 3 2 1 1 1 0 1 2 3 3 3 3 4 4 3 2 3 3 3 3 3 3 2 2 2 2 2 1 2 2 2 3 3 3 2 2 2 2 3
Wind_Direction
112 120 115 111 106 104 101 99 97 93 90 88 86 85 85 84 83 81 80 79 77 74 74 72 72 71 67 64 58 51 44 40 40 41 40 44 51 59 63 61 62 57 59
135 119 113 112 109 106 103 100 97 94 89 86 85 84 84 83 82 79 76 74 73 70 69 70 71 70 65 61 54 44 35 30 29 31 33 40 51 69 74 71 68 67 62
123 116 113 112 110 106 103 101 98 95 90 86 83 82 81 81 79 76 73 70 68 67 63 63 65 65 60 54 44 31 23 22 18 23 30 39 69 89 90 82 75 71 63
126 122 117 113 111 108 104 103 101 97 93 88 84 81 78 76 74 72 69 65 66 63 58 54 51 51 49 40 29 18 11 11 10 19 29 41 81 101 97 90 79 70 64
124 123 123 116 112 109 107 104 101 98 95 90 86 82 77 73 70 67 64 60 60 57 51 45 39 38 32 23 9 360 359 2 7 20 33 54 98 112 103 92 80 69 62
127 130 130 123 119 116 113 110 106 101 97 91 86 82 76 70 65 60 55 50 47 42 39 35 27 23 15 6 353 341 343 354 9 22 33 72 127 121 109 98 86 72 64
135 138 136 131 127 124 120 116 113 109 105 100 94 85 75 61 53 49 40 34 26 17 12 9 358 349 344 340 335 330 329 343 10 26 9 170 153 132 115 107 95 77 67
145 146 144 140 136 133 129 125 123 120 117 114 107 92 58 23 13 3 345 332 337 339 334 328 321 316 316 318 316 315 318 326 351 9 329 242 182 147 129 124 107 87 77
146 146 149 149 147 145 142 139 139 137 139 143 147 172 327 323 316 294 285 283 298 306 310 309 308 308 307 305 303 302 303 314 329 298 273 231 184 158 146 137 121 105 92
148 151 157 157 158 158 157 159 161 161 170 202 271 284 300 310 312 293 280 273 286 300 302 301 301 301 301 300 298 296 297 305 310 299 268 232 199 171 156 150 147 133 121
157 165 165 168 174 180 183 186 182 186 209 258 303 305 314 319 314 299 290 274 288 305 308 307 306 305 306 304 301 300 297 289 293 289 260 223 202 184 167 162 166 157 143
160 170 171 171 180 191 195 185 200 226 253 269 305 313 325 325 315 301 300 294 301 313 317 320 321 319 321 313 307 309 295 274 268 267 247 223 208 193 178 174 174 162 156
166 160 165 168 173 173 170 166 176 210 198 300 341 335 3 17 3 354 336 328 325 325 328 332 336 330 328 319 311 309 297 275 246 257 240 225 213 201 187 183 178 170 166
153 154 156 155 150 152 142 137 155 158 114 37 21 36 44 28 19 7 354 344 341 335 330 330 331 330 331 326 316 308 297 273 236 234 235 228 216 204 194 189 184 184 177
137 136 140 140 139 135 111 104 103 108 100 74 44 50 64 55 30 18 4 11 4 356 345 332 333 337 339 335 335 329 311 286 241 212 224 226 216 210 207 203 199 196 187
142 140 137 130 137 126 109 103 101 99 95 77 60 64 68 64 49 35 17 10 3 354 346 346 342 338 331 337 344 339 322 307 260 233 224 228 224 220 215 216 212 205 195
150 145 140 136 130 118 111 105 100 98 95 79 67 66 64 60 56 51 29 9 348 354 360 3 354 357 355 352 343 332 328 316 298 265 241 233 236 235 225 222 219 213 204
143 141 139 133 123 117 111 99 95 93 96 85 76 65 59 56 58 53 31 360 350 3 7 360 1 357 350 345 333 322 326 321 304 264 252 243 237 240 234 226 223 218 210
140 134 127 125 123 120 110 99 92 84 86 95 88 72 61 55 54 55 34 357 1 7 4 357 6 355 338 334 323 319 325 317 299 287 266 243 233 233 232 228 224 222 216
137 132 125 116 119 117 99 82 59 52 45 54 73 84 72 49 48 49 28 3 8 8 356 355 347 344 326 322 328 335 324 316 314 304 284 244 232 234 227 223 224 227 221
125 127 130 126 125 114 95 93 77 32 334 340 296 274 325 357 32 51 17 358 6 360 333 337 341 346 337 342 3 343 334 339 339 318 308 280 250 232 215 214 215 217 220
132 135 144 148 144 141 125 136 152 165 267 279 308 314 286 267 288 273 316 327 347 348 341 342 353 352 335 5 39 15 348 342 342 341 339 319 281 247 207 205 199 203 205
118 137 150 161 150 146 114 84 57 44 21 7 348 322 299 282 279 274 266 275 304 303 301 306 314 5 327 333 48 124 85 293 314 326 338 341 330 317 237 175 195 202 201
122 113 118 131 134 131 117 107 107 99 3 267 282 295 302 299 290 277 268 267 281 279 287 294 295 238 205 316 323 277 207 204 245 319 326 334 334 328 271 203 208 209 207
103 104 101 100 98 103 118 131 125 130 243 293 316 324 321 317 306 292 276 273 281 272 271 284 299 280 218 227 259 278 291 283 218 207 301 322 333 318 281 244 226 211 203
66 77 83 91 83 78 102 121 130 187 292 332 331 327 321 318 313 303 286 276 276 269 266 265 265 267 255 245 243 221 201 216 232 203 245 286 301 298 293 273 243 230 204
Height
1524 1524 1524 1524 1525 1525 1525 1526 1526 1526 1526 1526 1526 1526 1526 1526 1526 1527 1527 1527 1527 1527 1527 1526 1526 1526 1526 1526 1526 1526 1526 1525 1525 1524 1523 1523 1522 1521 1520 1520 1519 1518 1517
1524 1525 1525 1525 1525 1526 1526 1526 1527 1527 1527 1527 1527 1527 1527 1527 1527 1527 1527 1527 1527 1527 1527 1527 1527 1527 1527 1526 1526 1526 1526 1525 1525 1524 1524 1523 1522 1521 1521 1520 1519 1518 1517
1525 1526 1526 1526 1526 1526 1527 1527 1527 1527 1527 1527 1527 1527 1527 1527 1527 1527 1527 1527 1527 1527 1527 1527 1527 1526 1526 1526 1526 1526 1526 1526 1525 1525 1524 1523 1522 1522 1521 1520 1519 1518 1518
1526 1527 1527 1527 1527 1527 1527 1528 1528 1528 1528 1528 1527 1527 1527 1527 1527 1527 1527 1527 1527 1527 1526 1526 1526 1526 1526 1526 1526 1526 1526 1526 1525 1525 1524 1523 1523 1522 1521 1520 1519 1518 1518
1528 1528 1528 1528 1528 1528 1528 1528 1528 1528 1528 1528 1528 1528 1527 1527 1527 1527 1527 1526 1526 1526 1526 1526 1526 1526 1526 1526 1526 1526 1525 1525 1525 1525 1524 1523 1523 1522 1521 1521 1520 1519 1518
1529 1529 1529 1529 1529 1529 1529 1529 1529 1529 1528 1528 1528 1528 1528 1527 1527 1527 1527 1526 1526 1526 1525 1525 1525 1525 1525 1525 1525 1525 1525 1525 1524 1524 1524 1523 1523 1522 1522 1521 1520 1519 1518
1530 1531 1531 1531 1531 1530 1530 1530 1529 1529 1529 1529 1528 1528 1528 1528 1527 1527 1527 1526 1526 1525 1525 1524 1524 1524 1524 1524 1524 1524 1524 1524 1524 1523 1523 1523 1523 1522 1522 1521 1520 1519 1518
1531 1532 1532 1532 1532 1532 1531 1531 1531 1530 1530 1529 1529 1529 1528 1528 1528 1527 1527 1526 1526 1525 1524 1524 1523 1523 1523 1523 1523 1523 1523 1523 1523 1523 1523 1523 1522 1522 1522 1521 1521 1520 1519
1532 1533 1533 1533 1533 1533 1533 1532 1532 1532 1531 1531 1530 1529 1529 1529 1528 1527 1527 1526 1525 1525 1524 1523 1523 1522 1522 1522 1522 1522 1522 1522 1522 1522 1522 1522 1522 1522 1522 1521 1521 1520 1519
1534 1534 1535 1535 1535 1535 1534 1534 1533 1533 1532 1532 1531 1530 1530 1529 1528 1528 1527 1526 1525 1524 1524 1523 1522 1522 1521 1521 1521 1521 1521 1521 1521 1521 1522 1522 1522 1522 1521 1521 1521 1520 1519
1535 1535 1536 1536 1536 1536 1535 1535 1535 1534 1533 1532 1532 1531 1530 1529 1528 1528 1527 1526 1525 1524 1523 1523 1522 1521 1521 1520 1520 1520 1520 1520 1520 1521 1521 1521 1521 1521 1521 1521 1521 1520 1519
1535 1536 1537 1537 1537 1537 1536 1536 1535 1535 1534 1533 1532 1531 1530 1529 1528 1528 1527 1526 1525 1524 1523 1522 1521 1521 1520 1520 1519 1519 1519 1519 1519 1520 1520 1520 1521 1521 1521 1521 1520 1520 1519
1536 1537 1537 1538 1538 1537 1537 1537 1536 1536 1535 1534 1533 1532 1531 1530 1529 1528 1527 1526 1525 1524 1523 1522 1521 1520 1520 1519 1519 1518 1518 1518 1518 1519 1519 1519 1520 1520 1520 1520 1520 1519 1519
1537 1537 1538 1538 1538 1538 1538 1537 1537 1536 1535 1534 1533 1532 1531 1530 1529 1528 1526 1525 1524 1523 1522 1522 1521 1520 1519 1519 1518 1518 1517 1517 1517 1518 1518 1518 1519 1519 1519 1519 1519 1519 1519
1538 1538 1538 1539 1539 1539 1538 1538 1537 1537 1536 1535 1534 1532 1531 1530 1528 1527 1526 1525 1524 1523 1522 1521 1520 1519 1518 1518 1517 1517 1517 1516 1516 1517 1517 1517 1518 1518 1518 1518 1518 1518 1518
1538 1538 1539 1539 1539 1539 1539 1538 1538 1537 1536 1535 1534 1533 1531 1530 1528 1527 1526 1525 1523 1522 1521 1520 1519 1518 1517 1517 1516 1516 1516 1515 1515 1516 1516 1516 1517 1517 1517 1517 1517 1518 1518
1538 1539 1539 1539 1540 1539 1539 1538 1538 1537 1536 1536 1534 1533 1531 1530 1528 1527 1525 1524 1523 1521 1520 1519 1518 1517 1516 1515 1515 1514 1514 1514 1514 1514 1515 1515 1515 1516 1516 1516 1516 1517 1517
1539 1539 1539 1540 1540 1539 1539 1539 1538 1537 1537 1536 1534 1533 1531 1530 1528 1527 1525 1524 1522 1521 1519 1518 1517 1516 1515 1514 1513 1513 1513 1513 1513 1513 1513 1514 1514 1514 1515 1515 1515 1516 1516
1539 1539 1540 1540 1540 1540 1539 1539 1538 1537 1537 1536 1535 1533 1531 1530 1528 1526 1525 1523 1522 1520 1519 1517 1516 1515 1514 1513 1512 1512 1511 1511 1511 1512 1512 1512 1512 1513 1513 1514 1514 1515 1515
1539 1539 1540 1540 1540 1540 1539 1539 1538 1537 1537 1536 1535 1533 1531 1530 1528 1526 1524 1523 1521 1520 1518 1517 1515 1514 1513 1512 1511 1510 1510 1510 1510 1510 1510 1510 1511 1511 1512 1512 1513 1514 1514
1539 1539 1540 1540 1540 1539 1539 1538 1538 1537 1536 1536 1534 1533 1531 1530 1528 1526 1524 1523 1521 1520 1518 1516 1515 1513 1512 1511 1510 1509 1509 1509 1508 1508 1509 1509 1509 1510 1510 1511 1512 1513 1513
1538 1539 1539 1540 1539 1539 1539 1538 1538 1537 1536 1535 1534 1533 1531 1530 1528 1526 1524 1523 1521 1519 1518 1516 1515 1513 1512 1511 1510 1509 1508 1509 1507 1507 1507 1507 1507 1508 1508 1509 1510 1511 1512
1538 1539 1539 1539 1539 1539 1538 1538 1537 1536 1536 1535 1533 1532 1531 1529 1528 1526 1524 1523 1521 1519 1517 1516 1514 1513 1512 1511 1510 1510 1509 1508 1507 1507 1506 1506 1506 1506 1507 1508 1508 1510 1511
1538 1538 1539 1539 1539 1539 1538 1537 1537 1536 1535 1534 1533 1531 1530 1529 1527 1526 1524 1522 1521 1519 1517 1516 1514 1513 1512 1511 1510 1510 1510 1509 1508 1506 1506 1505 1505 1505 1506 1506 1507 1509 1510
1538 1538 1538 1538 1538 1538 1538 1537 1536 1535 1534 1533 1532 1531 1529 1528 1526 1525 1523 1521 1520 1518 1517 1515 1514 1512 1511 1510 1510 1509 1508 1508 1508 1507 1505 1505 1504 1504 1505 1505 1506 1507 1509
1538 1538 1538 1538 1538 1537 1537 1536 1535 1534 1533 1532 1531 1529 1528 1527 1525 1524 1522 1520 1519 1517 1516 1514 1513 1512 1511 1509 1509 1508 1507 1507 1507 1506 1505 1504 1503 1504 1504 1504 1505 1506 1507